Glens Falls, NY

3:21 AM EDT on March 26, 2017 (GMT -0400)
Bennett Memorial

Weather History for KGFL - April, 2014

Change the Weather History Date:

Wednesday, April 16, 2014

  Actual Average Record
Temperature  
Mean Temperature 32 °F 45 °F  
Max Temperature 39 °F 57 °F 89 °F (2002)
Min Temperature 25 °F 33 °F 21 °F (1992)
Degree Days  
Heating Degree Days 33 20  
Month to date heating degree days 337 372  
Since 1 July heating degree days 7416 7035  
Cooling Degree Days 0 0  
Month to date cooling degree days 0 0  
Year to date cooling degree days 0 0  
Moisture  
Dew Point 18 °F    
Average Humidity 54    
Maximum Humidity 74    
Minimum Humidity 34    
Precipitation  
Precipitation 0.00 in 0.10 in 1.06 in (1996)
Month to date precipitation 1.93 1.57  
Year to date precipitation 9.18 9.45  
Sea Level Pressure  
Sea Level Pressure 30.30 in    
Wind  
Wind Speed 10 mph (NNW)    
Max Wind Speed 17 mph    
Max Gust Speed 23 mph    
Visibility 9 miles    
Events Snow    
T = Trace of Precipitation, MM = Missing Value Source: NWS Daily Summary

Daily Weather History Graph

Daily Weather History Graph

Search for Another Location

Airport or City:

Trip Planner

Search our weather history database for the weather conditions in past years. The results will help you decide how hot, cold, wet, or windy it might be!

Date:

Astronomy

Apr. 16, 2014 Rise Set
Actual Time 6:10 AM EDT 7:38 PM EDT
Civil Twilight 5:40 AM EDT 8:08 PM EDT
Nautical Twilight 5:04 AM EDT 8:44 PM EDT
Astronomical Twilight 4:26 AM EDT 9:23 PM EDT
Moon 9:22 PM EDT (4/16) 6:54 AM EDT (4/16)
Length of Visible Light 14h 27m
Length of Day
13h 28m
Full, 98% of the Moon is Illuminated
Apr 16
Full
Apr 22
Last Quarter
Apr 29
New
May 6
First Quarter
May 14
Full

Hourly Weather History & Observations

Time (EDT) Temp. Windchill Dew Point Humidity Pressure Visibility Wind Dir Wind Speed Gust Speed Precip Events Conditions
12:05 AM 30.0 °F 24.1 °F 28.0 °F 92% 29.91 in 1.0 mi WSW 5.8 mph - 0.00 in Snow Light Snow
12:11 AM 30.0 °F 24.1 °F 28.0 °F 92% 29.92 in 2.0 mi WSW 5.8 mph - 0.00 in Snow Light Snow
12:31 AM 30.0 °F 26.5 °F 27.0 °F 88% 29.93 in 9.0 mi SSW 3.5 mph - 0.00 in   Overcast
12:53 AM 30.0 °F 26.5 °F 28.0 °F 92% 29.94 in 10.0 mi SW 3.5 mph - 0.00 in   Mostly Cloudy
1:53 AM 30.0 °F 21.7 °F 23.0 °F 75% 29.98 in 10.0 mi NNW 9.2 mph 21.9 mph N/A   Overcast
2:53 AM 28.0 °F 16.5 °F 19.0 °F 69% 30.04 in 10.0 mi NNW 15.0 mph 21.9 mph N/A   Scattered Clouds
3:53 AM 25.0 °F 14.8 °F 17.1 °F 72% 30.07 in 10.0 mi NW 10.4 mph - N/A   Partly Cloudy
4:53 AM - - - N/A% 30.13 in 10.0 mi NNW 6.9 mph - N/A   Mostly Cloudy
5:53 AM - - - N/A% 30.16 in 10.0 mi NW 10.4 mph - N/A   Overcast
6:53 AM - - - N/A% 30.20 in 10.0 mi NNW 8.1 mph 18.4 mph N/A   Clear
7:53 AM 25.0 °F 15.5 °F 12.9 °F 60% 30.28 in 10.0 mi NNW 9.2 mph 19.6 mph N/A   Clear
8:53 AM 25.0 °F 11.7 °F 12.9 °F 60% 30.32 in 10.0 mi NNW 17.3 mph - N/A   Clear
9:53 AM 28.0 °F 17.5 °F 14.0 °F 56% 30.35 in 10.0 mi NW 12.7 mph - N/A   Clear
10:53 AM 30.0 °F 19.1 °F 14.0 °F 51% 30.39 in 10.0 mi NNW 15.0 mph 20.7 mph N/A   Clear
11:53 AM 33.1 °F 23.9 °F 16.0 °F 50% 30.42 in 10.0 mi NW 12.7 mph 23.0 mph N/A   Clear
12:53 PM 34.0 °F 24.6 °F 16.0 °F 48% 30.44 in 10.0 mi North 13.8 mph 20.7 mph N/A   Clear
1:53 PM 35.6 °F 26.2 °F 17.6 °F 48% 30.42 in 10.0 mi North 15.0 mph 19.6 mph N/A   Clear
2:53 PM 37.0 °F 29.8 °F 16.0 °F 42% 30.46 in 10.0 mi NNE 10.4 mph 19.6 mph N/A   Clear
3:53 PM 39.0 °F 32.3 °F 15.1 °F 38% 30.47 in 10.0 mi NNW 10.4 mph 19.6 mph N/A   Clear
4:53 PM 37.9 °F 30.5 °F 12.9 °F 36% 30.45 in 10.0 mi NNE 11.5 mph 17.3 mph N/A   Clear
5:53 PM 39.2 °F 31.6 °F 14.0 °F 36% 30.46 in 10.0 mi North 12.7 mph - N/A   Clear
6:53 PM 37.9 °F 31.5 °F 12.9 °F 36% 30.49 in 10.0 mi NNE 9.2 mph - N/A   Clear
7:53 PM - - - N/A% 30.53 in 10.0 mi NE 8.1 mph - N/A   Clear
8:53 PM - - - N/A% 30.56 in 10.0 mi East 5.8 mph - N/A   Clear
9:53 PM - - - N/A% 30.58 in 10.0 mi North 4.6 mph - N/A   Clear
10:53 PM - - - N/A% 30.59 in 10.0 mi Calm Calm - N/A   Clear
11:53 PM - - - N/A% 30.61 in 10.0 mi North 4.6 mph - N/A   Clear